Time,TemperatureF,DewpointF,PressureIn,WindDirection,WindDirectionDegrees,WindSpeedMPH,WindSpeedGustMPH,Humidity,HourlyPrecipIn,Conditions,Clouds,dailyrainin,SoftwareType,DateUTC
2013-05-27 00:02:00,66.8,64.1,29.46,ESE,115,2.0,2.0,91,0.00,,,0.00,Wunderground v.1.15,2013-05-27 05:02:00,
2013-05-27 00:08:00,66.9,64.2,29.45,ESE,118,5.0,5.0,91,0.00,,,0.00,Wunderground v.1.15,2013-05-27 05:08:00,
2013-05-27 00:14:00,67.5,64.5,29.45,SE,134,0.0,5.0,90,0.00,,,0.00,Wunderground v.1.15,2013-05-27 05:14:00,
2013-05-27 00:19:00,67.7,64.3,29.45,SE,129,5.0,5.0,89,0.00,,,0.00,Wunderground v.1.15,2013-05-27 05:19:00,
2013-05-27 00:25:00,68.1,64.4,29.44,SSE,163,0.0,3.0,88,0.00,,,0.00,Wunderground v.1.15,2013-05-27 05:25:00,
2013-05-27 00:30:00,68.3,64.6,29.44,SSE,157,0.0,1.0,88,0.00,,,0.00,Wunderground v.1.15,2013-05-27 05:30:00,
2013-05-27 00:36:00,67.9,64.5,29.44,SE,131,0.0,4.0,89,0.00,,,0.00,Wunderground v.1.15,2013-05-27 05:36:00,
2013-05-27 00:41:00,67.7,64.3,29.45,South,178,0.0,1.0,89,0.00,,,0.00,Wunderground v.1.15,2013-05-27 05:41:00,
2013-05-27 00:47:00,67.4,64.4,29.45,SW,234,0.0,1.0,90,0.00,,,0.00,Wunderground v.1.15,2013-05-27 05:47:00,
2013-05-27 00:53:00,67.1,64.1,29.46,SW,234,0.0,0.0,90,0.00,,,0.00,Wunderground v.1.15,2013-05-27 05:53:00,
2013-05-27 00:58:00,67.0,64.3,29.45,SW,234,0.0,0.0,91,0.00,,,0.00,Wunderground v.1.15,2013-05-27 05:58:00,
2013-05-27 01:04:00,66.7,64.0,29.45,WSW,239,0.0,0.0,91,0.00,,,0.00,Wunderground v.1.15,2013-05-27 06:04:00,
2013-05-27 01:09:00,66.6,64.2,29.45,WSW,239,0.0,0.0,92,0.00,,,0.00,Wunderground v.1.15,2013-05-27 06:09:00,
2013-05-27 01:15:00,66.4,64.0,29.46,WSW,240,0.0,3.0,92,0.00,,,0.00,Wunderground v.1.15,2013-05-27 06:15:00,
2013-05-27 01:20:00,66.4,64.3,29.46,WSW,240,0.0,0.0,93,0.00,,,0.00,Wunderground v.1.15,2013-05-27 06:20:00,
2013-05-27 01:25:00,66.4,64.3,29.46,WSW,240,0.0,0.0,93,0.00,,,0.00,Wunderground v.1.15,2013-05-27 06:25:00,
2013-05-27 01:30:00,66.4,64.0,29.45,WSW,248,0.0,1.0,92,0.00,,,0.00,Wunderground v.1.15,2013-05-27 06:30:00,
2013-05-27 01:36:00,66.3,64.2,29.44,West,265,3.0,3.0,93,0.00,,,0.00,Wunderground v.1.15,2013-05-27 06:36:00,
2013-05-27 01:41:00,66.1,64.0,29.44,NE,53,0.0,1.0,93,0.00,,,0.00,Wunderground v.1.15,2013-05-27 06:41:00,
2013-05-27 01:47:00,65.9,63.8,29.43,NE,53,0.0,1.0,93,0.00,,,0.00,Wunderground v.1.15,2013-05-27 06:47:00,
2013-05-27 01:52:00,65.9,63.8,29.45,NE,53,0.0,0.0,93,0.00,,,0.00,Wunderground v.1.15,2013-05-27 06:52:00,
2013-05-27 01:57:00,65.8,63.7,29.46,NE,53,0.0,0.0,93,0.00,,,0.00,Wunderground v.1.15,2013-05-27 06:57:00,
2013-05-27 02:02:00,65.8,63.7,29.46,NE,53,0.0,0.0,93,0.00,,,0.00,Wunderground v.1.15,2013-05-27 07:02:00,
2013-05-27 02:07:00,65.9,63.8,29.44,NE,53,0.0,0.0,93,0.00,,,0.00,Wunderground v.1.15,2013-05-27 07:07:00,
2013-05-27 02:12:00,65.8,63.7,29.44,NE,53,0.0,0.0,93,0.00,,,0.00,Wunderground v.1.15,2013-05-27 07:12:00,
2013-05-27 02:17:00,65.7,63.6,29.44,NE,53,0.0,0.0,93,0.00,,,0.00,Wunderground v.1.15,2013-05-27 07:17:00,
2013-05-27 02:22:00,65.9,63.8,29.43,NE,50,0.0,2.0,93,0.00,,,0.00,Wunderground v.1.15,2013-05-27 07:22:00,
2013-05-27 02:27:00,65.6,63.5,29.43,NE,53,0.0,2.0,93,0.00,,,0.00,Wunderground v.1.15,2013-05-27 07:27:00,
2013-05-27 02:32:00,65.6,63.5,29.43,NE,53,0.0,0.0,93,0.00,,,0.00,Wunderground v.1.15,2013-05-27 07:32:00,
2013-05-27 02:37:00,65.6,63.8,29.43,NE,53,0.0,0.0,94,0.00,,,0.00,Wunderground v.1.15,2013-05-27 07:37:00,
2013-05-27 02:42:00,65.6,63.8,29.43,NE,53,0.0,0.0,94,0.00,,,0.00,Wunderground v.1.15,2013-05-27 07:42:00,
2013-05-27 02:47:00,65.6,63.8,29.42,NE,53,0.0,4.0,94,0.00,,,0.00,Wunderground v.1.15,2013-05-27 07:47:00,
2013-05-27 02:52:00,65.6,63.8,29.42,NE,53,0.0,4.0,94,0.00,,,0.00,Wunderground v.1.15,2013-05-27 07:52:00,
2013-05-27 02:57:00,65.6,63.8,29.42,NE,53,0.0,4.0,94,0.00,,,0.00,Wunderground v.1.15,2013-05-27 07:57:00,
2013-05-27 03:02:00,65.6,63.8,29.41,NE,53,0.0,0.0,94,0.00,,,0.00,Wunderground v.1.15,2013-05-27 08:02:00,
2013-05-27 03:07:00,65.6,63.8,29.40,NE,53,0.0,3.0,94,0.00,,,0.00,Wunderground v.1.15,2013-05-27 08:07:00,
2013-05-27 03:12:00,65.6,63.8,29.39,NE,54,1.0,3.0,94,0.00,,,0.00,Wunderground v.1.15,2013-05-27 08:12:00,
2013-05-27 03:17:00,65.6,63.8,29.39,NE,54,0.0,4.0,94,0.00,,,0.00,Wunderground v.1.15,2013-05-27 08:17:00,
2013-05-27 03:22:00,65.6,63.8,29.39,NE,54,0.0,0.0,94,0.00,,,0.00,Wunderground v.1.15,2013-05-27 08:22:00,
2013-05-27 03:27:00,65.6,63.8,29.39,NE,53,0.0,0.0,94,0.00,,,0.00,Wunderground v.1.15,2013-05-27 08:27:00,
2013-05-27 03:32:00,65.5,63.7,29.36,NE,54,1.0,7.0,94,0.00,,,0.00,Wunderground v.1.15,2013-05-27 08:32:00,
2013-05-27 03:37:00,65.4,63.6,29.34,ENE,57,7.0,11.0,94,0.00,,,0.00,Wunderground v.1.15,2013-05-27 08:37:00,
2013-05-27 03:42:00,65.4,63.6,29.33,ENE,60,0.0,6.0,94,0.00,,,0.00,Wunderground v.1.15,2013-05-27 08:42:00,
2013-05-27 03:47:00,65.3,63.5,29.35,ENE,67,0.0,8.0,94,0.00,,,0.00,Wunderground v.1.15,2013-05-27 08:47:00,
2013-05-27 03:52:00,65.4,63.6,29.36,ENE,67,0.0,2.0,94,0.00,,,0.00,Wunderground v.1.15,2013-05-27 08:52:00,
2013-05-27 03:57:00,65.5,63.7,29.38,ENE,67,0.0,2.0,94,0.00,,,0.00,Wunderground v.1.15,2013-05-27 08:57:00,
2013-05-27 04:02:00,65.6,63.8,29.42,ENE,70,4.0,4.0,94,0.00,,,0.00,Wunderground v.1.15,2013-05-27 09:02:00,
2013-05-27 04:07:00,65.7,64.2,29.42,SW,229,0.0,6.0,95,0.00,,,0.00,Wunderground v.1.15,2013-05-27 09:07:00,
2013-05-27 04:12:00,65.7,63.9,29.42,West,265,0.0,7.0,94,0.00,,,0.00,Wunderground v.1.15,2013-05-27 09:12:00,
2013-05-27 04:17:00,65.5,63.7,29.42,WSW,238,1.0,7.0,94,0.00,,,0.00,Wunderground v.1.15,2013-05-27 09:17:00,
2013-05-27 04:22:00,65.2,63.4,29.41,SW,226,6.0,10.0,94,0.00,,,0.00,Wunderground v.1.15,2013-05-27 09:22:00,
2013-05-27 04:27:00,64.9,63.1,29.41,SW,214,0.0,10.0,94,0.00,,,0.00,Wunderground v.1.15,2013-05-27 09:27:00,
2013-05-27 04:32:00,64.7,62.9,29.41,WNW,288,0.0,2.0,94,0.00,,,0.00,Wunderground v.1.15,2013-05-27 09:32:00,
2013-05-27 04:37:00,64.6,62.8,29.42,SW,230,0.0,7.0,94,0.00,,,0.00,Wunderground v.1.15,2013-05-27 09:37:00,
2013-05-27 04:42:00,64.5,62.7,29.42,SW,229,2.0,5.0,94,0.00,,,0.00,Wunderground v.1.15,2013-05-27 09:42:00,
2013-05-27 04:47:00,64.5,62.7,29.42,SW,230,0.0,5.0,94,0.00,,,0.00,Wunderground v.1.15,2013-05-27 09:47:00,
2013-05-27 04:52:00,64.5,62.7,29.42,SW,230,0.0,2.0,94,0.00,,,0.00,Wunderground v.1.15,2013-05-27 09:52:00,
2013-05-27 04:57:00,64.4,62.6,29.42,SW,227,0.0,5.0,94,0.00,,,0.00,Wunderground v.1.15,2013-05-27 09:57:00,
2013-05-27 05:02:00,64.4,62.6,29.42,SW,231,0.0,3.0,94,0.00,,,0.00,Wunderground v.1.15,2013-05-27 10:02:00,
2013-05-27 05:07:00,64.4,62.6,29.42,SW,221,4.0,7.0,94,0.00,,,0.00,Wunderground v.1.15,2013-05-27 10:07:00,
2013-05-27 05:12:00,64.3,62.5,29.42,SW,215,3.0,7.0,94,0.00,,,0.00,Wunderground v.1.15,2013-05-27 10:12:00,
2013-05-27 05:17:00,64.2,62.4,29.42,SSW,209,0.0,7.0,94,0.00,,,0.00,Wunderground v.1.15,2013-05-27 10:17:00,
2013-05-27 05:22:00,64.1,62.3,29.43,SW,223,0.0,3.0,94,0.00,,,0.00,Wunderground v.1.15,2013-05-27 10:22:00,
2013-05-27 05:27:00,63.9,62.1,29.43,SW,222,2.0,4.0,94,0.00,,,0.00,Wunderground v.1.15,2013-05-27 10:27:00,
2013-05-27 05:32:00,63.8,62.0,29.43,SW,221,0.0,3.0,94,0.00,,,0.00,Wunderground v.1.15,2013-05-27 10:32:00,
2013-05-27 05:37:00,63.8,62.0,29.44,SW,226,0.0,5.0,94,0.00,,,0.00,Wunderground v.1.15,2013-05-27 10:37:00,
2013-05-27 05:42:00,63.7,61.9,29.44,SW,236,0.0,6.0,94,0.00,,,0.00,Wunderground v.1.15,2013-05-27 10:42:00,
2013-05-27 05:47:00,63.7,62.2,29.44,SW,227,1.0,7.0,95,0.00,,,0.00,Wunderground v.1.15,2013-05-27 10:47:00,
2013-05-27 05:53:00,63.7,62.2,29.44,SW,217,0.0,6.0,95,0.00,,,0.00,Wunderground v.1.15,2013-05-27 10:53:00,
2013-05-27 05:58:00,63.7,61.9,29.44,SW,217,0.0,6.0,94,0.00,,,0.00,Wunderground v.1.15,2013-05-27 10:58:00,
2013-05-27 06:03:00,63.7,61.9,29.43,SW,217,0.0,7.0,94,0.00,,,0.00,Wunderground v.1.15,2013-05-27 11:03:00,
2013-05-27 06:08:00,63.7,61.9,29.44,SSW,213,0.0,7.0,94,0.00,,,0.00,Wunderground v.1.15,2013-05-27 11:08:00,
2013-05-27 06:13:00,63.7,61.9,29.44,SSW,213,0.0,1.0,94,0.00,,,0.00,Wunderground v.1.15,2013-05-27 11:13:00,
2013-05-27 06:18:00,63.8,62.0,29.44,SSW,213,2.0,4.0,94,0.00,,,0.00,Wunderground v.1.15,2013-05-27 11:18:00,
2013-05-27 06:23:00,63.8,62.0,29.44,SSW,213,0.0,0.0,94,0.00,,,0.00,Wunderground v.1.15,2013-05-27 11:23:00,
2013-05-27 06:28:00,63.7,61.9,29.44,SSW,213,0.0,2.0,94,0.00,,,0.00,Wunderground v.1.15,2013-05-27 11:28:00,
2013-05-27 06:33:00,63.7,61.9,29.44,SSW,213,0.0,2.0,94,0.00,,,0.00,Wunderground v.1.15,2013-05-27 11:33:00,
2013-05-27 06:38:00,63.8,62.0,29.44,SSW,213,0.0,2.0,94,0.00,,,0.00,Wunderground v.1.15,2013-05-27 11:38:00,
2013-05-27 06:43:00,63.8,62.0,29.44,SSW,213,0.0,0.0,94,0.00,,,0.00,Wunderground v.1.15,2013-05-27 11:43:00,
2013-05-27 06:48:00,63.8,62.0,29.44,SSW,213,0.0,0.0,94,0.00,,,0.00,Wunderground v.1.15,2013-05-27 11:48:00,
2013-05-27 06:53:00,63.9,62.1,29.44,SSW,213,0.0,0.0,94,0.00,,,0.00,Wunderground v.1.15,2013-05-27 11:53:00,
2013-05-27 06:58:00,64.0,62.2,29.44,SSW,213,0.0,0.0,94,0.00,,,0.00,Wunderground v.1.15,2013-05-27 11:58:00,
2013-05-27 07:03:00,64.1,62.6,29.43,SSW,213,0.0,0.0,95,0.00,,,0.00,Wunderground v.1.15,2013-05-27 12:03:00,
2013-05-27 07:08:00,64.2,62.7,29.44,SSW,213,0.0,0.0,95,0.00,,,0.00,Wunderground v.1.15,2013-05-27 12:08:00,
2013-05-27 07:13:00,64.4,62.9,29.44,SSW,213,0.0,4.0,95,0.00,,,0.00,Wunderground v.1.15,2013-05-27 12:13:00,
2013-05-27 07:18:00,64.5,63.0,29.45,SW,225,0.0,4.0,95,0.00,,,0.00,Wunderground v.1.15,2013-05-27 12:18:00,
2013-05-27 07:23:00,64.5,62.7,29.45,NW,311,0.0,8.0,94,0.00,,,0.00,Wunderground v.1.15,2013-05-27 12:23:00,
2013-05-27 07:28:00,64.5,62.7,29.46,NW,311,0.0,8.0,94,0.00,,,0.00,Wunderground v.1.15,2013-05-27 12:28:00,
2013-05-27 07:33:00,64.5,62.7,29.46,NW,311,0.0,5.0,94,0.00,,,0.00,Wunderground v.1.15,2013-05-27 12:33:00,
2013-05-27 07:38:00,64.5,62.7,29.47,NW,310,2.0,6.0,94,0.00,,,0.00,Wunderground v.1.15,2013-05-27 12:38:00,
2013-05-27 07:43:00,64.4,62.6,29.46,NW,312,0.0,5.0,94,0.00,,,0.00,Wunderground v.1.15,2013-05-27 12:43:00,
2013-05-27 07:48:00,64.5,62.7,29.45,NW,313,0.0,6.0,94,0.00,,,0.00,Wunderground v.1.15,2013-05-27 12:48:00,
2013-05-27 07:53:00,-999.9,-99.9,29.46,NW,322,0.0,8.0,94,0.00,,,0.00,Wunderground v.1.15,2013-05-27 12:53:00,
2013-05-27 07:58:00,64.6,62.8,29.46,NW,322,0.0,8.0,94,0.00,,,0.00,Wunderground v.1.15,2013-05-27 12:58:00,
2013-05-27 08:03:00,64.8,63.3,29.46,NW,322,0.0,1.0,95,0.00,,,0.00,Wunderground v.1.15,2013-05-27 13:03:00,
2013-05-27 08:08:00,64.9,63.4,29.46,NW,322,0.0,1.0,95,0.00,,,0.00,Wunderground v.1.15,2013-05-27 13:08:00,
2013-05-27 08:13:00,-999.9,-99.9,29.46,NW,322,0.0,0.0,94,0.00,,,0.00,Wunderground v.1.15,2013-05-27 13:13:00,
2013-05-27 08:18:00,-999.9,-99.9,29.46,NW,322,0.0,4.0,94,0.00,,,0.00,Wunderground v.1.15,2013-05-27 13:18:00,
2013-05-27 08:24:00,65.1,63.3,29.46,NW,322,0.0,0.0,94,0.00,,,0.00,Wunderground v.1.15,2013-05-27 13:24:00,
2013-05-27 08:29:00,65.4,-99.9,29.45,NW,322,0.0,0.0,255,0.00,,,0.00,Wunderground v.1.15,2013-05-27 13:29:00,
2013-05-27 08:34:00,65.6,63.5,29.45,NW,322,0.0,0.0,93,0.00,,,0.00,Wunderground v.1.15,2013-05-27 13:34:00,
2013-05-27 08:39:00,65.7,63.6,29.45,NW,322,0.0,0.0,93,0.00,,,0.00,Wunderground v.1.15,2013-05-27 13:39:00,
2013-05-27 08:44:00,65.9,64.1,29.45,NW,322,0.0,0.0,94,0.00,,,0.00,Wunderground v.1.15,2013-05-27 13:44:00,
2013-05-27 08:49:00,66.0,63.9,29.44,NW,322,0.0,0.0,93,0.00,,,0.00,Wunderground v.1.15,2013-05-27 13:49:00,
2013-05-27 08:54:00,66.1,64.0,29.44,NW,322,0.0,4.0,93,0.00,,,0.00,Wunderground v.1.15,2013-05-27 13:54:00,
2013-05-27 08:59:00,66.1,63.7,29.45,NW,322,0.0,4.0,92,0.00,,,0.00,Wunderground v.1.15,2013-05-27 13:59:00,
2013-05-27 09:04:00,66.3,63.9,29.45,NW,322,0.0,0.0,92,0.00,,,0.00,Wunderground v.1.15,2013-05-27 14:04:00,
2013-05-27 09:09:00,66.8,-99.9,29.44,NW,322,0.0,0.0,255,0.00,,,0.00,Wunderground v.1.15,2013-05-27 14:09:00,
2013-05-27 09:14:00,67.0,64.6,29.44,NW,322,0.0,0.0,92,0.00,,,0.00,Wunderground v.1.15,2013-05-27 14:14:00,
2013-05-27 09:19:00,67.2,64.8,29.44,NW,322,0.0,0.0,92,0.00,,,0.00,Wunderground v.1.15,2013-05-27 14:19:00,
2013-05-27 09:24:00,67.2,64.5,29.44,NW,322,0.0,0.0,91,0.00,,,0.00,Wunderground v.1.15,2013-05-27 14:24:00,
2013-05-27 09:29:00,67.4,64.7,29.43,NW,322,0.0,0.0,91,0.00,,,0.00,Wunderground v.1.15,2013-05-27 14:29:00,
2013-05-27 09:34:00,67.4,64.4,29.43,NW,322,0.0,0.0,90,0.00,,,0.00,Wunderground v.1.15,2013-05-27 14:34:00,
2013-05-27 09:39:00,67.4,64.4,29.43,NW,322,0.0,0.0,90,0.00,,,0.00,Wunderground v.1.15,2013-05-27 14:39:00,
2013-05-27 09:44:00,67.8,-99.9,29.42,NW,322,0.0,0.0,255,0.00,,,0.00,Wunderground v.1.15,2013-05-27 14:44:00,
2013-05-27 09:49:00,67.8,64.8,29.43,NW,322,0.0,0.0,90,0.00,,,0.00,Wunderground v.1.15,2013-05-27 14:49:00,
2013-05-27 09:54:00,67.7,64.3,29.42,NW,322,0.0,6.0,89,0.00,,,0.00,Wunderground v.1.15,2013-05-27 14:54:00,
2013-05-27 09:59:00,-999.9,-99.9,29.42,NW,322,0.0,6.0,255,0.00,,,0.00,Wunderground v.1.15,2013-05-27 14:59:00,
2013-05-27 10:04:00,67.6,64.2,29.41,NW,325,0.0,6.0,89,0.00,,,0.00,Wunderground v.1.15,2013-05-27 15:04:00,
2013-05-27 10:09:00,67.6,64.2,29.41,NNW,329,2.0,6.0,89,0.00,,,0.00,Wunderground v.1.15,2013-05-27 15:09:00,
2013-05-27 10:14:00,67.5,64.1,29.41,NNW,329,0.0,2.0,89,0.00,,,0.00,Wunderground v.1.15,2013-05-27 15:14:00,
2013-05-27 10:19:00,67.4,64.4,29.41,NNW,329,0.0,4.0,90,0.00,,,0.00,Wunderground v.1.15,2013-05-27 15:19:00,
2013-05-27 10:24:00,67.4,64.0,29.40,NNW,329,0.0,1.0,89,0.00,,,0.00,Wunderground v.1.15,2013-05-27 15:24:00,
2013-05-27 10:29:00,67.5,64.5,29.40,NNW,329,0.0,4.0,90,0.00,,,0.00,Wunderground v.1.15,2013-05-27 15:29:00,
2013-05-27 10:34:00,67.5,64.5,29.40,NNW,329,0.0,7.0,90,0.00,,,0.00,Wunderground v.1.15,2013-05-27 15:34:00,
2013-05-27 10:39:00,67.4,64.4,29.41,NNW,329,0.0,7.0,90,0.00,,,0.00,Wunderground v.1.15,2013-05-27 15:39:00,
2013-05-27 10:44:00,67.4,64.4,29.40,NNW,329,0.0,2.0,90,0.00,,,0.00,Wunderground v.1.15,2013-05-27 15:44:00,
2013-05-27 10:49:00,67.4,64.4,29.40,NNW,329,0.0,4.0,90,0.00,,,0.00,Wunderground v.1.15,2013-05-27 15:49:00,
2013-05-27 10:54:00,67.3,64.3,29.40,NNW,329,0.0,2.0,90,0.00,,,0.00,Wunderground v.1.15,2013-05-27 15:54:00,
2013-05-27 10:59:00,67.4,64.4,29.40,NNW,329,0.0,2.0,90,0.00,,,0.00,Wunderground v.1.15,2013-05-27 15:59:00,
2013-05-27 11:04:00,67.2,64.2,29.40,NNW,329,0.0,0.0,90,0.00,,,0.00,Wunderground v.1.15,2013-05-27 16:04:00,
2013-05-27 11:09:00,67.0,64.0,29.41,NNW,329,0.0,0.0,90,0.00,,,0.00,Wunderground v.1.15,2013-05-27 16:09:00,
2013-05-27 11:14:00,67.0,64.0,29.41,NNW,329,0.0,0.0,90,0.00,,,0.00,Wunderground v.1.15,2013-05-27 16:14:00,
2013-05-27 11:19:00,66.9,64.2,29.41,NNW,329,4.0,5.0,91,0.00,,,0.00,Wunderground v.1.15,2013-05-27 16:19:00,
2013-05-27 11:24:00,66.8,64.1,29.43,NW,315,0.0,5.0,91,0.00,,,0.00,Wunderground v.1.15,2013-05-27 16:24:00,
2013-05-27 11:29:00,66.6,63.9,29.43,WNW,300,0.0,9.0,91,0.00,,,0.00,Wunderground v.1.15,2013-05-27 16:29:00,
2013-05-27 11:34:00,66.3,63.9,29.43,WNW,300,2.0,4.0,92,0.00,,,0.00,Wunderground v.1.15,2013-05-27 16:34:00,
2013-05-27 11:40:00,66.1,63.7,29.44,WNW,300,0.0,0.0,92,0.00,,,0.00,Wunderground v.1.15,2013-05-27 16:40:00,
2013-05-27 11:45:00,66.0,63.6,29.43,WNW,301,4.0,4.0,92,0.00,,,0.00,Wunderground v.1.15,2013-05-27 16:45:00,
2013-05-27 11:50:00,65.8,63.7,29.44,WNW,301,4.0,4.0,93,0.00,,,0.00,Wunderground v.1.15,2013-05-27 16:50:00,
2013-05-27 11:55:00,65.7,63.6,29.45,WNW,283,12.0,12.0,93,0.00,,,0.00,Wunderground v.1.15,2013-05-27 16:55:00,
2013-05-27 12:00:00,65.6,63.5,29.46,WNW,292,0.0,5.0,93,0.00,,,0.00,Wunderground v.1.15,2013-05-27 17:00:00,
2013-05-27 12:05:00,65.3,63.2,29.46,WNW,293,5.0,11.0,93,0.00,,,0.00,Wunderground v.1.15,2013-05-27 17:05:00,
2013-05-27 12:10:00,65.0,62.9,29.46,NW,326,0.0,3.0,93,0.00,,,0.00,Wunderground v.1.15,2013-05-27 17:10:00,
2013-05-27 12:15:00,64.7,62.6,29.45,NNW,327,0.0,4.0,93,0.00,,,0.00,Wunderground v.1.15,2013-05-27 17:15:00,
2013-05-27 12:20:00,64.7,62.6,29.44,NNW,327,0.0,0.0,93,0.00,,,0.00,Wunderground v.1.15,2013-05-27 17:20:00,
2013-05-27 12:25:00,64.8,-99.9,29.46,NNW,329,0.0,5.0,255,0.00,,,0.00,Wunderground v.1.15,2013-05-27 17:25:00,
2013-05-27 12:30:00,64.5,62.4,29.46,NNW,329,0.0,0.0,93,0.00,,,0.00,Wunderground v.1.15,2013-05-27 17:30:00,
2013-05-27 12:35:00,-999.9,-99.9,29.46,NNW,329,0.0,0.0,94,0.00,,,0.00,Wunderground v.1.15,2013-05-27 17:35:00,
2013-05-27 12:40:00,64.5,62.7,29.46,NNW,331,0.0,0.0,94,0.00,,,0.00,Wunderground v.1.15,2013-05-27 17:40:00,
2013-05-27 12:45:00,64.4,62.6,29.46,NNW,329,0.0,7.0,94,0.00,,,0.00,Wunderground v.1.15,2013-05-27 17:45:00,
2013-05-27 12:50:00,64.6,62.5,29.45,NNW,329,1.0,1.0,93,0.00,,,0.00,Wunderground v.1.15,2013-05-27 17:50:00,
2013-05-27 12:55:00,64.3,62.5,29.45,NW,322,0.0,5.0,94,0.00,,,0.00,Wunderground v.1.15,2013-05-27 17:55:00,
2013-05-27 13:00:00,-999.9,-99.9,29.45,NW,322,0.0,1.0,93,0.00,,,0.00,Wunderground v.1.15,2013-05-27 18:00:00,
2013-05-27 13:05:00,64.3,62.2,29.44,NW,323,0.0,1.0,93,0.00,,,0.00,Wunderground v.1.15,2013-05-27 18:05:00,
2013-05-27 13:10:00,64.1,62.3,29.44,NW,325,2.0,2.0,94,0.00,,,0.00,Wunderground v.1.15,2013-05-27 18:10:00,
2013-05-27 13:15:00,64.1,62.3,29.43,NW,326,0.0,5.0,94,0.00,,,0.00,Wunderground v.1.15,2013-05-27 18:15:00,
2013-05-27 13:20:00,64.2,-99.9,29.44,NNW,327,0.0,0.0,255,0.00,,,0.00,Wunderground v.1.15,2013-05-27 18:20:00,
2013-05-27 13:25:00,64.3,62.5,29.44,NNW,327,0.0,0.0,94,0.00,,,0.00,Wunderground v.1.15,2013-05-27 18:25:00,
2013-05-27 13:30:00,64.1,-99.9,29.43,NNW,328,0.0,0.0,255,0.00,,,0.00,Wunderground v.1.15,2013-05-27 18:30:00,
2013-05-27 13:35:00,64.0,62.2,29.43,NNW,328,0.0,0.0,94,0.00,,,0.00,Wunderground v.1.15,2013-05-27 18:35:00,
2013-05-27 13:40:00,64.0,62.2,29.43,NNW,328,0.0,0.0,94,0.00,,,0.00,Wunderground v.1.15,2013-05-27 18:40:00,
2013-05-27 13:45:00,64.0,62.2,29.44,NNW,328,0.0,1.0,94,0.00,,,0.00,Wunderground v.1.15,2013-05-27 18:45:00,
2013-05-27 13:50:00,64.1,62.6,29.45,WSW,247,3.0,5.0,95,0.00,,,0.00,Wunderground v.1.15,2013-05-27 18:50:00,
2013-05-27 13:55:00,64.1,62.6,29.46,SSW,200,0.0,8.0,95,0.00,,,0.00,Wunderground v.1.15,2013-05-27 18:55:00,
2013-05-27 14:00:00,64.1,62.6,29.45,SSW,199,0.0,4.0,95,0.00,,,0.00,Wunderground v.1.15,2013-05-27 19:00:00,
2013-05-27 14:05:00,64.2,62.4,29.44,South,174,7.0,9.0,94,0.00,,,0.00,Wunderground v.1.15,2013-05-27 19:05:00,
2013-05-27 14:10:00,64.1,62.6,29.43,South,174,0.0,3.0,95,0.00,,,0.00,Wunderground v.1.15,2013-05-27 19:10:00,
2013-05-27 14:15:00,64.1,62.6,29.42,South,174,0.0,8.0,95,0.00,,,0.00,Wunderground v.1.15,2013-05-27 19:15:00,
2013-05-27 14:20:00,64.0,62.5,29.40,South,174,5.0,8.0,95,0.00,,,0.00,Wunderground v.1.15,2013-05-27 19:20:00,
2013-05-27 14:26:00,64.1,62.6,29.39,South,171,5.0,10.0,95,0.00,,,0.00,Wunderground v.1.15,2013-05-27 19:26:00,
2013-05-27 14:31:00,64.2,62.4,29.38,South,170,0.0,4.0,94,0.00,,,0.00,Wunderground v.1.15,2013-05-27 19:31:00,
2013-05-27 14:36:00,64.3,62.5,29.36,South,170,0.0,7.0,94,0.00,,,0.00,Wunderground v.1.15,2013-05-27 19:36:00,
2013-05-27 14:41:00,-999.9,-99.9,29.35,South,170,5.0,6.0,94,0.00,,,0.00,Wunderground v.1.15,2013-05-27 19:41:00,
2013-05-27 14:46:00,64.5,62.7,29.35,South,170,7.0,8.0,94,0.00,,,0.00,Wunderground v.1.15,2013-05-27 19:46:00,
2013-05-27 14:51:00,64.6,62.8,29.35,South,170,0.0,5.0,94,0.00,,,0.00,Wunderground v.1.15,2013-05-27 19:51:00,
2013-05-27 14:56:00,64.8,-99.9,29.33,SSE,159,9.0,14.0,255,0.00,,,0.00,Wunderground v.1.15,2013-05-27 19:56:00,
2013-05-27 15:01:00,64.6,62.8,29.33,SSE,159,9.0,19.0,94,0.00,,,0.00,Wunderground v.1.15,2013-05-27 20:01:00,
2013-05-27 15:06:00,64.6,62.8,29.30,SE,144,13.0,19.0,94,0.00,,,0.00,Wunderground v.1.15,2013-05-27 20:06:00,
2013-05-27 15:11:00,64.8,63.0,29.29,SE,138,8.0,15.0,94,0.00,,,0.00,Wunderground v.1.15,2013-05-27 20:11:00,
2013-05-27 15:16:00,64.5,62.7,29.26,SSE,157,12.0,17.0,94,0.00,,,0.00,Wunderground v.1.15,2013-05-27 20:16:00,
2013-05-27 15:21:00,64.5,62.7,29.23,SE,142,12.0,18.0,94,0.00,,,0.00,Wunderground v.1.15,2013-05-27 20:21:00,
2013-05-27 15:26:00,64.5,62.4,29.20,ESE,105,12.0,21.0,93,0.00,,,0.00,Wunderground v.1.15,2013-05-27 20:26:00,
2013-05-27 15:31:00,64.5,62.4,29.19,SE,135,10.0,16.0,93,0.00,,,0.00,Wunderground v.1.15,2013-05-27 20:31:00,
2013-05-27 15:36:00,64.5,62.4,29.17,SE,136,12.0,17.0,93,0.00,,,0.00,Wunderground v.1.15,2013-05-27 20:36:00,
2013-05-27 15:41:00,64.6,62.5,29.16,SE,137,18.0,22.0,93,0.00,,,0.00,Wunderground v.1.15,2013-05-27 20:41:00,
2013-05-27 15:46:00,64.9,62.2,29.16,SSE,161,9.0,22.0,91,0.00,,,0.00,Wunderground v.1.15,2013-05-27 20:46:00,
2013-05-27 15:51:00,65.4,62.4,29.15,South,188,10.0,12.0,90,0.00,,,0.00,Wunderground v.1.15,2013-05-27 20:51:00,
2013-05-27 15:56:00,65.8,62.1,29.15,ESE,114,11.0,16.0,88,0.00,,,0.00,Wunderground v.1.15,2013-05-27 20:56:00,
2013-05-27 16:01:00,66.7,61.7,29.17,South,177,10.0,14.0,84,0.00,,,0.00,Wunderground v.1.15,2013-05-27 21:01:00,
2013-05-27 16:06:00,67.2,62.2,29.19,SSE,162,8.0,19.0,84,0.00,,,0.00,Wunderground v.1.15,2013-05-27 21:06:00,
2013-05-27 16:11:00,66.9,62.2,29.19,South,183,19.0,20.0,85,0.00,,,0.00,Wunderground v.1.15,2013-05-27 21:11:00,
2013-05-27 16:16:00,66.8,62.1,29.20,South,189,13.0,20.0,85,0.00,,,0.00,Wunderground v.1.15,2013-05-27 21:16:00,
2013-05-27 16:21:00,67.0,62.3,29.21,South,181,11.0,12.0,85,0.00,,,0.00,Wunderground v.1.15,2013-05-27 21:21:00,
2013-05-27 16:26:00,67.3,62.0,29.22,South,170,9.0,20.0,83,0.00,,,0.00,Wunderground v.1.15,2013-05-27 21:26:00,
2013-05-27 16:31:00,67.6,61.9,29.22,SSW,200,4.0,8.0,82,0.00,,,0.00,Wunderground v.1.15,2013-05-27 21:31:00,
2013-05-27 16:36:00,68.1,-99.9,29.24,SSW,198,5.0,8.0,255,0.00,,,0.00,Wunderground v.1.15,2013-05-27 21:36:00,
2013-05-27 16:41:00,68.0,63.3,29.25,SSW,196,0.0,1.0,85,0.00,,,0.00,Wunderground v.1.15,2013-05-27 21:41:00,
2013-05-27 16:46:00,67.7,63.0,29.25,SSW,204,0.0,5.0,85,0.00,,,0.00,Wunderground v.1.15,2013-05-27 21:46:00,
2013-05-27 16:51:00,67.6,63.3,29.25,SW,219,0.0,5.0,86,0.00,,,0.00,Wunderground v.1.15,2013-05-27 21:51:00,
2013-05-27 16:56:00,67.8,63.8,29.26,SW,223,0.0,5.0,87,0.00,,,0.00,Wunderground v.1.15,2013-05-27 21:56:00,
2013-05-27 17:01:00,68.1,63.8,29.26,WSW,242,0.0,1.0,86,0.00,,,0.00,Wunderground v.1.15,2013-05-27 22:01:00,
2013-05-27 17:06:00,-999.9,-99.9,29.27,WSW,242,0.0,1.0,86,0.00,,,0.00,Wunderground v.1.15,2013-05-27 22:06:00,
2013-05-27 17:11:00,69.1,64.4,29.28,WSW,242,0.0,0.0,85,0.00,,,0.00,Wunderground v.1.15,2013-05-27 22:11:00,
2013-05-27 17:16:00,69.8,64.7,29.28,WSW,242,0.0,0.0,84,0.00,,,0.00,Wunderground v.1.15,2013-05-27 22:16:00,
2013-05-27 17:21:00,70.3,64.9,29.28,WSW,242,0.0,0.0,83,0.00,,,0.00,Wunderground v.1.15,2013-05-27 22:21:00,
2013-05-27 17:26:00,70.8,65.7,29.29,WSW,242,0.0,0.0,84,0.00,,,0.00,Wunderground v.1.15,2013-05-27 22:26:00,
2013-05-27 17:31:00,71.1,65.3,29.29,WSW,242,0.0,0.0,82,0.00,,,0.00,Wunderground v.1.15,2013-05-27 22:31:00,
2013-05-27 17:36:00,71.3,65.5,29.29,WSW,242,3.0,3.0,82,0.00,,,0.00,Wunderground v.1.15,2013-05-27 22:36:00,
2013-05-27 17:41:00,71.5,65.7,29.29,WSW,242,0.0,1.0,82,0.00,,,0.00,Wunderground v.1.15,2013-05-27 22:41:00,
2013-05-27 17:46:00,72.0,64.8,29.29,WSW,242,0.0,1.0,78,0.00,,,0.00,Wunderground v.1.15,2013-05-27 22:46:00,
2013-05-27 17:51:00,72.4,65.2,29.29,SW,234,4.0,4.0,78,0.00,,,0.00,Wunderground v.1.15,2013-05-27 22:51:00,
2013-05-27 17:56:00,72.5,64.1,29.29,South,185,7.0,8.0,75,0.00,,,0.00,Wunderground v.1.15,2013-05-27 22:56:00,
2013-05-27 18:01:00,72.4,63.6,29.29,SSW,195,1.0,10.0,74,0.00,,,0.00,Wunderground v.1.15,2013-05-27 23:01:00,
2013-05-27 18:06:00,-999.9,-99.9,29.29,South,175,0.0,10.0,75,0.00,,,0.00,Wunderground v.1.15,2013-05-27 23:06:00,
2013-05-27 18:11:00,72.4,64.0,29.30,SSW,193,1.0,2.0,75,0.00,,,0.00,Wunderground v.1.15,2013-05-27 23:11:00,
2013-05-27 18:16:00,72.8,64.0,29.30,SSW,193,0.0,2.0,74,0.00,,,0.00,Wunderground v.1.15,2013-05-27 23:16:00,
2013-05-27 18:21:00,72.4,64.0,29.29,SSW,193,4.0,4.0,75,0.00,,,0.00,Wunderground v.1.15,2013-05-27 23:21:00,
2013-05-27 18:26:00,72.5,64.1,29.29,SSW,193,0.0,5.0,75,0.00,,,0.00,Wunderground v.1.15,2013-05-27 23:26:00,
2013-05-27 18:31:00,72.5,64.5,29.30,SSW,193,0.0,0.0,76,0.00,,,0.00,Wunderground v.1.15,2013-05-27 23:31:00,
2013-05-27 18:36:00,72.5,64.1,29.30,SSW,193,0.0,3.0,75,0.00,,,0.00,Wunderground v.1.15,2013-05-27 23:36:00,
2013-05-27 18:41:00,72.5,64.5,29.30,SSW,193,0.0,0.0,76,0.00,,,0.00,Wunderground v.1.15,2013-05-27 23:41:00,
2013-05-27 18:46:00,72.8,64.8,29.30,SSW,193,0.0,0.0,76,0.00,,,0.00,Wunderground v.1.15,2013-05-27 23:46:00,
2013-05-27 18:51:00,72.8,66.3,29.30,SSW,193,0.0,0.0,80,0.00,,,0.00,Wunderground v.1.15,2013-05-27 23:51:00,
2013-05-27 18:56:00,72.8,65.5,29.30,SSW,193,0.0,0.0,78,0.00,,,0.00,Wunderground v.1.15,2013-05-27 23:56:00,
2013-05-27 19:01:00,72.8,64.8,29.30,SSW,193,0.0,0.0,76,0.00,,,0.00,Wunderground v.1.15,2013-05-28 00:01:00,
2013-05-27 19:06:00,-999.9,-99.9,29.30,SSW,192,0.0,0.0,79,0.00,,,0.00,Wunderground v.1.15,2013-05-28 00:06:00,
2013-05-27 19:11:00,73.2,65.9,29.30,SSW,193,0.0,0.0,78,0.00,,,0.00,Wunderground v.1.15,2013-05-28 00:11:00,
2013-05-27 19:17:00,72.9,65.3,29.30,SSW,193,0.0,6.0,77,0.00,,,0.00,Wunderground v.1.15,2013-05-28 00:17:00,
2013-05-27 19:22:00,72.7,65.8,29.30,SSW,193,0.0,1.0,79,0.00,,,0.00,Wunderground v.1.15,2013-05-28 00:22:00,
2013-05-27 19:27:00,72.6,65.7,29.30,SSW,193,0.0,1.0,79,0.00,,,0.00,Wunderground v.1.15,2013-05-28 00:27:00,
2013-05-27 19:32:00,72.4,65.9,29.30,SSW,193,0.0,4.0,80,0.00,,,0.00,Wunderground v.1.15,2013-05-28 00:32:00,
2013-05-27 19:37:00,72.0,65.1,29.30,SSW,193,0.0,4.0,79,0.00,,,0.00,Wunderground v.1.15,2013-05-28 00:37:00,
2013-05-27 19:42:00,72.0,64.8,29.31,SSW,192,0.0,2.0,78,0.00,,,0.00,Wunderground v.1.15,2013-05-28 00:42:00,
2013-05-27 19:47:00,71.7,64.8,29.31,SSW,193,0.0,2.0,79,0.00,,,0.00,Wunderground v.1.15,2013-05-28 00:47:00,
2013-05-27 19:52:00,71.3,64.8,29.31,SSW,193,0.0,0.0,80,0.00,,,0.00,Wunderground v.1.15,2013-05-28 00:52:00,
2013-05-27 19:57:00,71.0,64.9,29.31,SSW,193,0.0,0.0,81,0.00,,,0.00,Wunderground v.1.15,2013-05-28 00:57:00,
2013-05-27 20:02:00,70.4,64.6,29.31,SSW,193,0.0,0.0,82,0.00,,,0.00,Wunderground v.1.15,2013-05-28 01:02:00,
2013-05-27 20:07:00,70.1,64.7,29.31,SSW,193,0.0,0.0,83,0.00,,,0.00,Wunderground v.1.15,2013-05-28 01:07:00,
2013-05-27 20:12:00,69.8,64.7,29.31,SSW,193,0.0,0.0,84,0.00,,,0.00,Wunderground v.1.15,2013-05-28 01:12:00,
2013-05-27 20:17:00,69.2,64.5,29.31,SSW,193,0.0,0.0,85,0.00,,,0.00,Wunderground v.1.15,2013-05-28 01:17:00,
2013-05-27 20:22:00,68.9,64.2,29.31,SSW,193,0.0,0.0,85,0.00,,,0.00,Wunderground v.1.15,2013-05-28 01:22:00,
2013-05-27 20:27:00,68.7,64.3,29.31,SSW,193,0.0,2.0,86,0.00,,,0.00,Wunderground v.1.15,2013-05-28 01:27:00,
2013-05-27 20:32:00,68.5,64.1,29.31,SSW,193,0.0,0.0,86,0.00,,,0.00,Wunderground v.1.15,2013-05-28 01:32:00,
2013-05-27 20:38:00,68.4,64.0,29.32,SSW,193,0.0,0.0,86,0.00,,,0.00,Wunderground v.1.15,2013-05-28 01:38:00,
2013-05-27 20:43:00,-999.9,-99.9,29.31,SSW,192,1.0,3.0,85,0.00,,,0.00,Wunderground v.1.15,2013-05-28 01:43:00,
2013-05-27 20:48:00,-999.9,-99.9,29.32,SSW,193,0.0,3.0,87,0.00,,,0.00,Wunderground v.1.15,2013-05-28 01:48:00,
2013-05-27 20:53:00,67.9,63.9,29.32,SSW,193,0.0,0.0,87,0.00,,,0.00,Wunderground v.1.15,2013-05-28 01:53:00,
2013-05-27 20:58:00,67.6,63.6,29.31,SSW,193,0.0,0.0,87,0.00,,,0.00,Wunderground v.1.15,2013-05-28 01:58:00,
2013-05-27 21:03:00,67.3,63.6,29.31,SSW,193,0.0,0.0,88,0.00,,,0.00,Wunderground v.1.15,2013-05-28 02:03:00,
2013-05-27 21:08:00,67.0,63.3,29.31,SSW,193,0.0,0.0,88,0.00,,,0.00,Wunderground v.1.15,2013-05-28 02:08:00,
2013-05-27 21:13:00,67.1,63.7,29.31,SSW,193,0.0,1.0,89,0.00,,,0.00,Wunderground v.1.15,2013-05-28 02:13:00,
2013-05-27 21:18:00,66.8,63.5,29.31,SSW,193,3.0,3.0,89,0.00,,,0.00,Wunderground v.1.15,2013-05-28 02:18:00,
2013-05-27 21:23:00,67.0,63.3,29.31,SE,141,0.0,7.0,88,0.00,,,0.00,Wunderground v.1.15,2013-05-28 02:23:00,
2013-05-27 21:28:00,67.4,63.7,29.30,SE,138,0.0,7.0,88,0.00,,,0.00,Wunderground v.1.15,2013-05-28 02:28:00,
2013-05-27 21:33:00,68.0,64.0,29.31,SSE,153,7.0,10.0,87,0.00,,,0.00,Wunderground v.1.15,2013-05-28 02:33:00,
2013-05-27 21:38:00,68.7,64.0,29.31,SE,144,0.0,10.0,85,0.00,,,0.00,Wunderground v.1.15,2013-05-28 02:38:00,
2013-05-27 21:43:00,68.9,63.9,29.31,SSE,151,0.0,7.0,84,0.00,,,0.00,Wunderground v.1.15,2013-05-28 02:43:00,
2013-05-27 21:48:00,69.2,63.8,29.32,SSE,162,4.0,9.0,83,0.00,,,0.00,Wunderground v.1.15,2013-05-28 02:48:00,
2013-05-27 21:53:00,69.5,64.1,29.32,SSE,150,0.0,17.0,83,0.00,,,0.00,Wunderground v.1.15,2013-05-28 02:53:00,
2013-05-27 21:58:00,69.7,64.0,29.31,SSE,158,7.0,17.0,82,0.00,,,0.00,Wunderground v.1.15,2013-05-28 02:58:00,
2013-05-27 22:03:00,69.8,64.1,29.31,SE,129,11.0,12.0,82,0.00,,,0.00,Wunderground v.1.15,2013-05-28 03:03:00,
2013-05-27 22:08:00,69.9,64.2,29.32,SE,146,9.0,15.0,82,0.00,,,0.00,Wunderground v.1.15,2013-05-28 03:08:00,
2013-05-27 22:13:00,70.2,64.1,29.32,SSE,162,4.0,13.0,81,0.00,,,0.00,Wunderground v.1.15,2013-05-28 03:13:00,
2013-05-27 22:18:00,70.6,64.5,29.32,SSE,158,7.0,17.0,81,0.00,,,0.00,Wunderground v.1.15,2013-05-28 03:18:00,
2013-05-27 22:23:00,70.5,64.4,29.32,SSE,159,6.0,15.0,81,0.00,,,0.00,Wunderground v.1.15,2013-05-28 03:23:00,
2013-05-27 22:28:00,70.3,64.2,29.31,ESE,117,0.0,15.0,81,0.00,,,0.00,Wunderground v.1.15,2013-05-28 03:28:00,
2013-05-27 22:33:00,70.1,64.0,29.31,SSE,157,4.0,11.0,81,0.00,,,0.00,Wunderground v.1.15,2013-05-28 03:33:00,
2013-05-27 22:38:00,69.7,64.0,29.31,South,187,6.0,14.0,82,0.00,,,0.00,Wunderground v.1.15,2013-05-28 03:38:00,
2013-05-27 22:43:00,69.4,64.0,29.31,SSE,160,11.0,17.0,83,0.00,,,0.00,Wunderground v.1.15,2013-05-28 03:43:00,
2013-05-27 22:48:00,69.3,63.9,29.31,SSE,157,0.0,17.0,83,0.00,,,0.00,Wunderground v.1.15,2013-05-28 03:48:00,
2013-05-27 22:53:00,69.0,-99.9,29.32,SSE,161,5.0,15.0,255,0.00,,,0.00,Wunderground v.1.15,2013-05-28 03:53:00,
2013-05-27 22:58:00,69.0,64.0,29.32,SE,142,6.0,15.0,84,0.00,,,0.00,Wunderground v.1.15,2013-05-28 03:58:00,
2013-05-27 23:01:00,68.9,63.9,29.32,SSE,157,7.0,11.0,84,0.00,,,0.00,Wunderground v.1.15,2013-05-28 04:01:00,
2013-05-27 23:06:00,69.3,64.3,29.31,South,176,11.0,17.0,84,0.00,,,0.00,Wunderground v.1.15,2013-05-28 04:06:00,
2013-05-27 23:11:00,69.1,-99.9,29.31,SSE,156,9.0,18.0,255,0.00,,,0.00,Wunderground v.1.15,2013-05-28 04:11:00,
2013-05-27 23:16:00,69.0,63.6,29.31,SSE,151,7.0,18.0,83,0.00,,,0.00,Wunderground v.1.15,2013-05-28 04:16:00,
2013-05-27 23:21:00,69.3,64.3,29.32,South,174,8.0,14.0,84,0.00,,,0.00,Wunderground v.1.15,2013-05-28 04:21:00,
2013-05-27 23:26:00,69.3,63.9,29.32,SSE,161,0.0,14.0,83,0.00,,,0.00,Wunderground v.1.15,2013-05-28 04:26:00,
2013-05-27 23:31:00,69.4,64.0,29.32,SSE,163,5.0,11.0,83,0.00,,,0.00,Wunderground v.1.15,2013-05-28 04:31:00,
2013-05-27 23:36:00,69.8,64.1,29.31,SSE,151,6.0,13.0,82,0.00,,,0.00,Wunderground v.1.15,2013-05-28 04:36:00,
2013-05-27 23:41:00,69.9,64.2,29.31,SSE,154,4.0,11.0,82,0.00,,,0.00,Wunderground v.1.15,2013-05-28 04:41:00,
2013-05-27 23:46:00,70.1,64.3,29.32,SSE,163,1.0,11.0,82,0.00,,,0.00,Wunderground v.1.15,2013-05-28 04:46:00,
2013-05-27 23:52:00,70.3,64.2,29.32,SE,144,13.0,13.0,81,0.00,,,0.00,Wunderground v.1.15,2013-05-28 04:52:00,
2013-05-27 23:57:00,70.6,64.5,29.32,SSE,162,6.0,14.0,81,0.00,,,0.00,Wunderground v.1.15,2013-05-28 04:57:00,